Location: Mount Cross
(36.6390°N, 79.4878°W)
Time: 07:37:55
(UTC+00:00)

Vanguard 1 Rocket - Pass Details

Date: 04 April 2023
Orbit: 654 x 4221 km, 34.3° (Epoch: 01 June)

Event Time Altitude Azimuth Distance (km) Brightness Sun altitude
Rises 21:43:04 0° 192° (SSW) 6,806 12.1 23.0°
Reaches altitude 10° 21:48:25 10° 180° (S) 6,278 11.9 22.0°
Maximum altitude 22:05:05 27° 131° (SE) 5,863 11.3 18.7°
Drops below altitude 10° 22:24:06 10° 84° (E) 7,299 11.4 14.9°
Sets 22:30:49 0° 74° (ENE) 8,073 11.6 13.5°
